{"data":{"norad_id":65681,"epoch":"2026-09-19T16:53:56.346432Z","epoch_age_seconds":177360,"freshness":"STALE","line1":"1 65681U 25212F   26262.70412438  .00017985  00000+0  54198-3 0  9994","line2":"2 65681  53.1573 161.2627 0001221  83.8542 276.2600 15.34408948 57004","mean_motion":15.34408948,"eccentricity":0.0001221,"inclination_deg":53.1573,"raan_deg":161.2627,"arg_perigee_deg":83.8542,"mean_anomaly_deg":276.26,"bstar":0.00054198,"rev_number":5700,"period_min":93.847210802371,"perigee_km":461.84138164859,"apogee_km":463.5119083407,"semimajor_km":6840.8136449946,"source":"CELESTRAK","updated_at":"2026-09-21T09:00:35.685443Z"}}